Weather History for 03772 - February, 2014

Change the Weather History Date:

Wednesday, February 26, 2014

  Actual Average Record
Temperature  
Mean Temperature 45 °F -  
Max Temperature 53 °F 49 °F - ()
Min Temperature 37 °F 38 °F - ()
Degree Days  
Heating Degree Days 20    
Moisture  
Dew Point 37 °F    
Average Humidity 73    
Maximum Humidity 93    
Minimum Humidity 38    
Precipitation  
Precipitation 0.00 in - - ()
Sea Level Pressure  
Sea Level Pressure 29.91 in    
Wind  
Wind Speed 9 mph ()    
Max Wind Speed 17 mph    
Max Gust Speed -    
Visibility 10.9 miles    
Events Rain    
T = Trace of Precipitation, MM = Missing Value Source: Averaged Metar Reports

Daily Weather History Graph

Daily Weather History Graph

Search for Another Location

Airport or City:

Trip Planner

Search our weather history database for the weather conditions in past years. The results will help you decide how hot, cold, wet, or windy it might be!

Date:

Astronomy

Feb. 26, 2014 Rise Set
Actual Time 6:53 AM GMT 5:36 PM GMT
Civil Twilight 6:20 AM GMT 6:10 PM GMT
Nautical Twilight 5:41 AM GMT 6:48 PM GMT
Astronomical Twilight 5:02 AM GMT 7:27 PM GMT
Moon 4:44 AM GMT (2/26) 2:18 PM GMT (2/26)
Length of Visible Light 11h 50m
Length of Day
10h 42m
Waning Crescent, 12% of the Moon is Illuminated
Feb 26
Waning Crescent
Mar 1
New
Mar 8
First Quarter
Mar 16
Full
Mar 24
Last Quarter

Hourly Weather History & Observations

Time (GMT) Temp. Windchill Dew Point Humidity Pressure Visibility Wind Dir Wind Speed Gust Speed Precip Events Conditions
12:00 AM 44 °F - 38 °F 73% 29.73 in 17 mi South 8.1 mph - -   Mostly Cloudy
12:20 AM 44.6 °F 40.7 °F 39.2 °F 81% 29.74 in 6.2 mi SSW 6.9 mph - N/A   Mostly Cloudy
12:50 AM 42.8 °F 38.6 °F 39.2 °F 87% 29.74 in 6.2 mi South 6.9 mph - N/A   Scattered Clouds
1:00 AM 43 °F - 38 °F 77% 29.75 in 17 mi SSW 6.9 mph - -   Partly Cloudy
1:20 AM 42.8 °F 38.6 °F 39.2 °F 87% 29.74 in 6.2 mi SSW 6.9 mph - N/A   Unknown
1:50 AM 41.0 °F 36.4 °F 39.2 °F 93% 29.74 in 6.2 mi SSW 6.9 mph - N/A   Unknown
2:00 AM 42 °F - 38 °F 80% 29.76 in 16 mi South 8.1 mph - -  
2:20 AM 41.0 °F 35.8 °F 39.2 °F 93% 29.77 in 6.2 mi SSW 8.1 mph - N/A   Unknown
2:50 AM 41.0 °F 36.4 °F 39.2 °F 93% 29.77 in - SSW 6.9 mph - N/A   Clear
3:00 AM 41 °F - 37 °F 82% 29.78 in 16 mi SSW 8.1 mph - -  
3:20 AM 41.0 °F 37.1 °F 37.4 °F 87% 29.77 in - SSW 5.8 mph - N/A   Clear
3:50 AM 39.2 °F 34.2 °F 37.4 °F 93% 29.77 in - SSW 6.9 mph - N/A   Clear
4:00 AM 40 °F - 37 °F 83% 29.79 in 16 mi SSW 6.9 mph - -  
4:20 AM 39.2 °F 35.0 °F 37.4 °F 93% 29.80 in - SW 5.8 mph - N/A   Clear
4:50 AM 39.2 °F 34.2 °F 37.4 °F 93% 29.80 in - SW 6.9 mph - N/A   Clear
5:00 AM 38 °F - 36 °F 87% 29.81 in 12 mi SW 6.9 mph - -  
5:20 AM 39.2 °F 35.0 °F 37.4 °F 93% 29.83 in - SSW 5.8 mph - N/A   Clear
5:50 AM 39.2 °F 34.2 °F 37.4 °F 93% 29.83 in - SSW 6.9 mph - N/A   Clear
6:00 AM 39 °F - 36 °F 84% 29.83 in 11 mi SSW 9.2 mph - -  
6:20 AM 39.2 °F 33.6 °F 37.4 °F 93% 29.83 in - SW 8.1 mph - N/A   Clear
6:50 AM 39.2 °F 33.6 °F 37.4 °F 93% 29.86 in - SSW 8.1 mph - N/A   Clear
7:00 AM 40 °F - 36 °F 81% 29.86 in 11 mi SSW 8.1 mph - -  
7:20 AM 39.2 °F 33.6 °F 37.4 °F 93% 29.86 in - SW 8.1 mph - N/A   Clear
7:50 AM 39.2 °F 34.2 °F 37.4 °F 93% 29.89 in - SSW 6.9 mph - N/A   Clear
8:00 AM 40 °F - 36 °F 82% 29.89 in 11 mi SW 6.9 mph - -  
8:20 AM 41.0 °F 35.8 °F 39.2 °F 93% 29.89 in - SW 8.1 mph - N/A   Clear
8:50 AM 42.8 °F 37.5 °F 39.2 °F 87% 29.89 in - SW 9.2 mph - N/A   Clear
9:00 AM 44 °F - 39 °F 75% 29.91 in 12 mi SW 8.1 mph - -  
9:20 AM 44.6 °F 39.2 °F 39.2 °F 81% 29.92 in - WSW 10.4 mph - N/A   Clear
9:50 AM 46.4 °F 41.9 °F 39.2 °F 76% 29.92 in - WSW 9.2 mph - N/A   Clear
10:00 AM 47 °F - 39 °F 67% 29.93 in 12 mi SW 8.1 mph - -  
10:20 AM 48.2 °F - 41.0 °F 76% 29.92 in 6.2 mi WSW 9.2 mph - N/A   Partly Cloudy
10:50 AM 48.2 °F - 39.2 °F 71% 29.95 in 6.2 mi West 11.5 mph - N/A   Mostly Cloudy
11:00 AM 50 °F - 39 °F 57% 29.95 in 15 mi West 13.8 mph - -   Scattered Clouds
11:20 AM 50.0 °F - 39.2 °F 66% 29.95 in 6.2 mi WSW 13.8 mph - N/A   Scattered Clouds
11:50 AM 51.8 °F - 39.2 °F 62% 29.95 in 6.2 mi WSW 12.7 mph - N/A   Partly Cloudy
12:00 PM 51 °F - 37 °F 48% 29.95 in 14 mi SW 12.7 mph - -   Scattered Clouds
12:20 PM 53.6 °F - 37.4 °F 54% 29.95 in 6.2 mi West 16.1 mph - N/A   Scattered Clouds
12:50 PM 51.8 °F - 37.4 °F 58% 29.95 in 6.2 mi WSW 12.7 mph - N/A   Scattered Clouds
1:00 PM 49 °F - 36 °F 49% 29.96 in 17 mi WSW 13.8 mph - -   Scattered Clouds
1:20 PM 53.6 °F - 37.4 °F 54% 29.95 in 6.2 mi WSW 13.8 mph - N/A   Mostly Cloudy
1:50 PM 53.6 °F - 33.8 °F 47% 29.95 in 6.2 mi WSW 17.3 mph - N/A   Scattered Clouds
2:00 PM 52 °F - 35 °F 40% 29.97 in 19 mi SW 16.1 mph - -   Scattered Clouds
2:20 PM 53.6 °F - 33.8 °F 47% 29.98 in 6.2 mi WSW 15.0 mph - N/A   Scattered Clouds
2:50 PM 53.6 °F - 35.6 °F 51% 29.98 in 6.2 mi West 15.0 mph - N/A   Scattered Clouds
3:00 PM 51 °F - 34 °F 40% 29.97 in 19 mi West 13.8 mph - -   Scattered Clouds
3:20 PM 51.8 °F - 33.8 °F 50% 29.98 in 6.2 mi West 15.0 mph - N/A   Scattered Clouds
3:50 PM 51.8 °F - 35.6 °F 54% 29.98 in 6.2 mi West 12.7 mph - N/A   Partly Cloudy
4:00 PM 52 °F - 34 °F 38% 29.98 in 19 mi WSW 11.5 mph - - Rain Rain
4:20 PM 51.8 °F - 35.6 °F 54% 29.98 in 6.2 mi WSW 13.8 mph - N/A   Partly Cloudy
4:50 PM 50.0 °F - 33.8 °F 54% 29.98 in 6.2 mi WSW 15.0 mph - N/A   Partly Cloudy
5:00 PM 50 °F - 34 °F 41% 29.99 in 16 mi WSW 15.0 mph - -  
5:20 PM 50.0 °F - 35.6 °F 58% 29.98 in 6.2 mi WSW 15.0 mph - N/A   Partly Cloudy
5:50 PM 48.2 °F - 35.6 °F 62% 30.01 in - WSW 13.8 mph - N/A   Clear
6:00 PM 47 °F - 35 °F 52% 30.01 in 19 mi SW 13.8 mph - -  
6:20 PM 46.4 °F 41.5 °F 37.4 °F 71% 30.01 in - SW 10.4 mph - N/A   Clear
6:50 PM 44.6 °F 39.7 °F 37.4 °F 76% 30.01 in - SSW 9.2 mph - N/A   Clear
7:00 PM 46 °F - 36 °F 58% 30.02 in 22 mi SSW 10.4 mph - -   Scattered Clouds
7:20 PM 44.6 °F 38.8 °F 37.4 °F 76% 30.01 in - SSW 11.5 mph - N/A   Clear
7:50 PM 42.8 °F 38.6 °F 37.4 °F 81% 30.01 in - SSW 6.9 mph - N/A   Clear
8:00 PM 44 °F - 36 °F 64% 30.01 in 19 mi South 6.9 mph - -  
8:20 PM 42.8 °F 38.0 °F 37.4 °F 81% 30.01 in - SSW 8.1 mph - N/A   Clear
8:50 PM 42.8 °F 36.6 °F 37.4 °F 81% 30.01 in - SW 11.5 mph - N/A   Clear
9:00 PM 44 °F - 37 °F 67% 30.01 in 14 mi SSW 10.4 mph - -  
9:20 PM 42.8 °F 36.6 °F 39.2 °F 87% 30.01 in - SW 11.5 mph - N/A   Clear
9:50 PM 42.8 °F 36.6 °F 39.2 °F 87% 30.01 in - SW 11.5 mph - N/A   Clear
10:00 PM 43 °F - 37 °F 73% 30.00 in 11 mi SSW 12.7 mph - -  
10:20 PM 42.8 °F 37.5 °F 37.4 °F 81% 29.98 in - SSW 9.2 mph - N/A   Clear
10:50 PM 42.8 °F 37.5 °F 37.4 °F 81% 29.98 in - South 9.2 mph - N/A   Clear
11:00 PM 43 °F - 37 °F 72% 29.98 in 12 mi South 9.2 mph - -  
11:20 PM 42.8 °F 37.5 °F 37.4 °F 81% 29.95 in - South 9.2 mph - N/A   Clear
11:50 PM 42.8 °F 36.6 °F 39.2 °F 87% 29.95 in - South 11.5 mph - N/A   Clear